Hourly Data Report for July 07, 2017

All times are specified in Local Standard Time (LST). Add 1 hour to adjust for Daylight Saving Time where and when it is observed.

LUTSELK'E CS
NORTHWEST TERRITORIES

62°24'56.030" N
110°41'25.070" W
178.90 m
220L002
71529
XLU

Download Data

Hourly Data (July 2017)
Hourly Data Report for July 7, 2017
Temp Definition
°C
Dew Point Temp Definition
°C
Rel Hum Definition
%
Wind Dir Definition
10's deg

Wind Spd Definition
km/h
Visibility Definition
km
Stn Press Definition
kPa
Hmdx Definition


Wind Chill Definition


Weather Definition


TIME
00:00 15.0 9.3 68 LegendMM LegendMM   99.44     LegendNANA
01:00 14.1 9.5 74 LegendMM LegendMM   99.43     LegendNANA
02:00 14.5 9.8 73 LegendMM LegendMM   99.42     LegendNANA
03:00 13.8 9.8 77 LegendMM LegendMM   99.40     LegendNANA
04:00 14.6 9.9 74 LegendMM LegendMM   99.43     LegendNANA
05:00 13.9 9.6 75 LegendMM LegendMM   99.36     LegendNANA
06:00 16.8 10.4 66 LegendMM LegendMM   99.34     LegendNANA
07:00 14.6 8.8 68 LegendMM LegendMM   99.35     LegendNANA
08:00 15.7 9.1 65 LegendMM LegendMM   99.38     LegendNANA
09:00 16.2 9.8 66 LegendMM LegendMM   99.45     LegendNANA
10:00 17.3 9.9 62 LegendMM LegendMM   99.50     LegendNANA
11:00 17.2 9.7 61 LegendMM LegendMM   99.53     LegendNANA
12:00 19.2 11.7 62 LegendMM LegendMM   99.55     LegendNANA
13:00 19.8 11.7 60 LegendMM LegendMM   99.56     LegendNANA
14:00 20.4 10.3 52 LegendMM LegendMM   99.56     LegendNANA
15:00 21.0 9.4 47 LegendMM LegendMM   99.56     LegendNANA
16:00 21.5 8.8 44 LegendMM LegendMM   99.55     LegendNANA
17:00 20.3 8.0 45 LegendMM LegendMM   99.56     LegendNANA
18:00 20.0 8.4 47 LegendMM LegendMM   99.55     LegendNANA
19:00 20.2 7.4 44 LegendMM LegendMM   99.55     LegendNANA
20:00 19.6 8.0 47 LegendMM LegendMM   99.54     LegendNANA
21:00 17.8 8.5 55 LegendMM LegendMM   99.56     LegendNANA
22:00 15.6 10.0 69 LegendMM LegendMM   99.53     LegendNANA
23:00 14.2 9.7 74 LegendMM LegendMM   99.55     LegendNANA

Notes on Data Quality.

Legend

  • E = Estimated
  • M = Missing
  • NA = Not Available
  • ‡ = Partner data that is not subject to review by the National Climate Archives
Date modified: